GW2194 Weather Reports


Display with metric or nautical units.
time (UTC)temp
F
wind
direction
speed
MPH
gust
MPH
rain 1hr
in
rain 24hr
in
rain mn
in
humidity
%
barometer
mb
20260503041623 40 39 2.0 4.0 0.00 0.00 0.00 71 1018.4
20260503041121 40 46 3.0 4.0 0.00 0.00 0.00 70 1018.2
20260503040618 40 28 3.0 3.0 0.00 0.00 0.00 70 1017.9
20260503040116 40 33 5.0 5.0 0.00 0.00 0.00 69 1018.3
20260503035612 40 11 3.0 4.0 0.00 0.00 0.00 68 1018.0
20260503035110 40 25 4.0 4.0 0.00 0.00 0.00 68 1018.0
20260503034607 40 348 3.0 6.0 0.00 0.00 0.00 68 1018.2
20260503034104 40 22 6.0 7.0 0.00 0.00 0.00 67 1018.0
20260503033601 41 2 3.0 5.0 0.00 0.00 0.00 67 1018.2
20260503033059 41 343 4.0 5.0 0.00 0.00 0.00 66 1018.0
20260503032557 41 2 2.0 11.0 0.00 0.00 0.00 67 1018.2
20260503032055 41 23 4.0 6.0 0.00 0.00 0.00 67 1018.2
20260503031552 41 14 3.0 5.0 0.00 0.00 0.00 67 1018.0
20260503031050 41 8 5.0 5.0 0.00 0.00 0.00 68 1018.0
20260503030545 41 358 3.0 4.0 0.00 0.00 0.00 67 1017.9
20260503030043 41 17 6.0 6.0 0.00 0.00 0.00 66 1018.3
20260503025539 41 336 4.0 7.0 0.00 0.00 0.00 67 1018.4
20260503025037 41 13 9.0 9.0 0.00 0.00 0.00 66 1018.3
20260503024533 41 259 0.0 6.0 0.00 0.00 0.00 68 1018.0
20260503024031 41 0 4.0 5.0 0.00 0.00 0.00 68 1018.0
20260503023527 41 18 3.0 5.0 0.00 0.00 0.00 67 1017.8
20260503023025 42 15 2.0 7.0 0.00 0.00 0.00 66 1017.9
20260503022520 42 25 5.0 8.0 0.00 0.00 0.00 66 1018.3
20260503022015 42 15 3.0 6.0 0.00 0.00 0.00 66 1018.0
20260503021512 42 339 14.0 15.0 0.00 0.00 0.00 66 1018.0
20260503021009 42 354 5.0 11.0 0.00 0.00 0.00 66 1018.2
20260503020507 42 347 3.0 10.0 0.00 0.00 0.00 67 1018.0
20260503020003 43 16 6.0 10.0 0.00 0.00 0.00 67 1017.9
20260503015500 43 26 5.0 8.0 0.00 0.00 0.00 67 1017.8
20260503014956 43 17 5.0 5.0 0.00 0.00 0.00 66 1018.0
20260503014453 43 350 6.0 8.0 0.00 0.00 0.00 65 1017.9
20260503013951 43 14 2.0 5.0 0.00 0.00 0.00 66 1017.8
20260503013448 43 0 4.0 5.0 0.00 0.00 0.00 65 1017.7
20260503012945 43 349 5.0 8.0 0.00 0.00 0.00 65 1017.7
20260503012443 44 16 6.0 6.0 0.00 0.00 0.00 64 1017.6
20260503011939 44 12 7.0 9.0 0.00 0.00 0.00 63 1017.6
20260503011436 44 29 5.0 6.0 0.00 0.00 0.00 63 1017.5
20260503010933 44 22 4.0 6.0 0.00 0.00 0.00 63 1017.4
20260503010429 44 5 5.0 8.0 0.00 0.00 0.00 61 1017.4
20260503005927 44 4 5.0 10.0 0.00 0.00 0.00 61 1017.4
20260503005424 44 12 7.0 9.0 0.00 0.00 0.00 60 1017.1
20260503004921 45 356 3.0 11.0 0.00 0.00 0.00 60 1017.1
20260503004418 45 6 5.0 11.0 0.00 0.00 0.00 57 1016.9
20260503003915 45 9 5.0 12.0 0.00 0.00 0.00 55 1016.9
20260503003412 45 13 4.0 5.0 0.00 0.00 0.00 53 1016.8
20260503002909 46 352 3.0 3.0 0.00 0.00 0.00 51 1016.6
20260503002406 46 9 7.0 8.0 0.00 0.00 0.00 50 1016.7
20260503001902 46 15 8.0 11.0 0.00 0.00 0.00 49 1016.7
20260503001359 46 347 10.0 11.0 0.00 0.00 0.00 49 1016.7
20260503000857 46 8 7.0 8.0 0.00 0.00 0.00 49 1016.6
20260503000353 46 20 9.0 11.0 0.00 0.00 0.00 47 1016.5
20260502235850 47 31 6.0 16.0 0.00 0.00 0.00 46 1016.4
20260502235347 47 344 7.0 8.0 0.00 0.00 0.00 45 1016.2
20260502234844 47 176 0.0 6.0 0.00 0.00 0.00 46 1016.3
20260502234341 47 0 8.0 11.0 0.00 0.00 0.00 43 1016.2
20260502233838 48 0 4.0 6.0 0.00 0.00 0.00 45 1016.2
20260502233334 48 15 3.0 5.0 0.00 0.00 0.00 44 1016.1
20260502232831 48 33 5.0 6.0 0.00 0.00 0.00 42 1015.6
20260502232328 48 353 4.0 9.0 0.00 0.00 0.00 42 1015.8
20260502231824 48 46 2.0 3.0 0.00 0.00 0.00 42 1015.8
20260502231322 48 91 2.0 6.0 0.00 0.00 0.00 42 1015.7
20260502230820 48 32 6.0 13.0 0.00 0.00 0.00 40 1016.0
20260502230318 48 18 5.0 11.0 0.00 0.00 0.00 40 1015.6
20260502225814 48 19 6.0 10.0 0.00 0.00 0.00 40 1015.6
20260502225311 48 39 5.0 7.0 0.00 0.00 0.00 41 1015.6
20260502224808 48 192 2.0 5.0 0.00 0.00 0.00 42 1015.8
20260502224304 48 40 4.0 9.0 0.00 0.00 0.00 40 1016.0
20260502223802 48 31 8.0 9.0 0.00 0.00 0.00 43 1016.3
20260502223300 49 346 7.0 12.0 0.00 0.00 0.00 40 1015.8
20260502222757 49 29 9.0 12.0 0.00 0.00 0.00 40 1015.6
20260502222254 49 5 0.0 5.0 0.00 0.00 0.00 40 1015.6
20260502221750 49 2 4.0 10.0 0.00 0.00 0.00 39 1015.6
20260502221246 49 354 5.0 9.0 0.00 0.00 0.00 40 1015.3
20260502220743 49 358 3.0 4.0 0.00 0.00 0.00 40 1015.6
20260502220239 49 45 5.0 6.0 0.00 0.00 0.00 40 1015.7
20260502215736 49 259 1.0 8.0 0.00 0.00 0.00 39 1015.7
20260502215233 49 291 2.0 8.0 0.00 0.00 0.00 41 1015.6
20260502214731 49 26 9.0 14.0 0.00 0.00 0.00 40 1015.5
20260502214227 50 21 7.0 8.0 0.00 0.00 0.00 40 1015.4
20260502213724 50 334 2.0 4.0 0.00 0.00 0.00 39 1015.4
20260502213222 50 331 2.0 7.0 0.00 0.00 0.00 40 1015.1
20260502212721 50 352 5.0 7.0 0.00 0.00 0.00 39 1015.4
20260502212218 50 269 0.0 6.0 0.00 0.00 0.00 41 1015.1
20260502211714 50 243 4.0 9.0 0.00 0.00 0.00 41 1015.1
20260502211211 50 354 2.0 9.0 0.00 0.00 0.00 40 1015.2
20260502210708 50 14 7.0 9.0 0.00 0.00 0.00 38 1015.4
20260502210205 51 26 10.0 12.0 0.00 0.00 0.00 38 1015.3
20260502205703 50 224 3.0 7.0 0.00 0.00 0.00 42 1015.3
20260502205159 50 21 4.0 7.0 0.00 0.00 0.00 39 1015.4
20260502204655 50 316 4.0 10.0 0.00 0.00 0.00 38 1015.2
20260502204154 50 316 2.0 6.0 0.00 0.00 0.00 36 1015.6
20260502203650 50 301 5.0 9.0 0.00 0.00 0.00 38 1015.5
20260502203149 50 260 4.0 9.0 0.00 0.00 0.00 39 1015.4
20260502202642 50 57 3.0 4.0 0.00 0.00 0.00 39 1015.3
20260502202141 50 2 4.0 13.0 0.00 0.00 0.00 40 1015.5
20260502201637 50 258 4.0 6.0 0.00 0.00 0.00 37 1015.3
20260502201134 50 326 3.0 6.0 0.00 0.00 0.00 38 1015.3
20260502200630 50 4 7.0 10.0 0.00 0.00 0.00 37 1015.5
20260502200127 51 343 8.0 12.0 0.00 0.00 0.00 39 1015.5
20260502195626 51 10 2.0 5.0 0.00 0.00 0.00 40 1015.8
20260502195121 50 287 1.0 5.0 0.00 0.00 0.00 36 1015.6
20260502194618 51 352 3.0 5.0 0.00 0.00 0.00 39 1015.6
20260502194114 50 3 3.0 3.0 0.00 0.00 0.00 41 1015.8
20260502193611 50 217 3.0 6.0 0.00 0.00 0.00 40 1015.4
20260502193108 51 201 9.0 10.0 0.00 0.00 0.00 41 1015.7
20260502192604 50 339 5.0 5.0 0.00 0.00 0.00 40 1015.6
20260502192102 50 12 6.0 9.0 0.00 0.00 0.00 39 1016.0
20260502191558 50 319 3.0 7.0 0.00 0.00 0.00 43 1016.1
20260502191055 50 36 5.0 8.0 0.00 0.00 0.00 38 1016.1
20260502190553 50 236 4.0 8.0 0.00 0.00 0.00 40 1016.1
20260502190050 49 49 0.0 7.0 0.00 0.00 0.00 41 1016.2
20260502185544 50 345 4.0 9.0 0.00 0.00 0.00 38 1016.3
20260502185042 50 17 4.0 5.0 0.00 0.00 0.00 41 1016.3
20260502184538 50 136 2.0 5.0 0.00 0.00 0.00 38 1016.4
20260502184034 51 5 5.0 11.0 0.00 0.00 0.00 37 1016.2
20260502183530 52 51 3.0 5.0 0.00 0.00 0.00 43 1016.3
20260502183026 50 247 2.0 4.0 0.00 0.00 0.00 41 1016.4
20260502182521 50 214 5.0 8.0 0.00 0.00 0.00 38 1016.6
20260502182018 51 6 5.0 9.0 0.00 0.00 0.00 39 1016.4
20260502181516 51 0 3.0 9.0 0.00 0.00 0.00 40 1016.4
20260502181015 49 0 4.0 7.0 0.00 0.00 0.00 45 1016.8
20260502180511 49 275 2.0 6.0 0.00 0.00 0.00 45 1016.8
20260502170424 46 15 1.0 7.0 0.00 0.00 0.00 49 1016.9
20260502163907 46 21 5.0 9.0 0.00 0.00 0.00 52 1017.2
20260502163404 47 11 6.0 10.0 0.00 0.00 0.00 48 1017.2
20260502162902 47 345 5.0 6.0 0.00 0.00 0.00 51 1017.2
20260502162358 46 26 5.0 7.0 0.00 0.00 0.00 51 1017.3
20260502161855 46 2 4.0 7.0 0.00 0.00 0.00 51 1017.2
20260502161351 46 14 5.0 13.0 0.00 0.00 0.00 50 1017.3
20260502160849 47 10 3.0 6.0 0.00 0.00 0.00 50 1017.3
20260502160348 47 329 3.0 7.0 0.00 0.00 0.00 49 1017.2
20260502152328 45 354 5.0 7.0 0.00 0.00 0.00 56 1017.4
20260502151826 45 359 9.0 11.0 0.00 0.00 0.00 55 1017.5
20260502151322 45 191 3.0 9.0 0.00 0.00 0.00 56 1017.4
20260502150820 46 16 6.0 10.0 0.00 0.00 0.00 54 1017.5
20260502150316 46 352 7.0 8.0 0.00 0.00 0.00 54 1017.5
20260502130705 43 2 3.0 6.0 0.00 0.00 0.00 68 1017.2
20260502130202 42 83 2.0 5.0 0.00 0.00 0.00 70 1017.3
20260502123648 43 54 3.0 4.0 0.00 0.00 0.00 74 1017.9
20260502123145 40 356 4.0 4.0 0.00 0.00 0.00 76 1017.7
20260502122641 40 22 2.0 3.0 0.00 0.00 0.00 80 1017.4
20260502122138 40 83 3.0 5.0 0.00 0.00 0.00 78 1017.6
20260502121636 40 62 2.0 3.0 0.00 0.00 0.00 80 1017.4
20260502121133 40 72 3.0 5.0 0.00 0.00 0.00 80 1017.5
20260502120630 40 15 1.0 2.0 0.00 0.00 0.00 80 1017.6
20260502120127 40 50 1.0 2.0 0.00 0.00 0.00 82 1017.8
20260502115624 40 80 1.0 1.0 0.00 0.00 0.00 81 1017.8
20260502115120 39 44 0.0 2.0 0.00 0.00 0.00 82 1017.8
20260502114616 40 41 0.0 1.0 0.00 0.00 0.00 82 1017.9
20260502114114 40 72 0.0 1.0 0.00 0.00 0.00 83 1017.6
20260502113611 40 19 0.0 1.0 0.00 0.00 0.00 85 1017.9
20260502113110 39 235 0.0 0.0 0.00 0.00 0.00 84 1017.7
20260502112607 39 240 0.0 2.0 0.00 0.00 0.00 86 1017.4
20260502112104 39 252 1.0 2.0 0.00 0.00 0.00 90 1017.7
20260502111602 39 75 1.0 2.0 0.00 0.00 0.00 92 1017.6
20260502111059 39 99 0.0 4.0 0.00 0.00 0.00 93 1017.8
20260502110556 38 55 0.0 1.0 0.00 0.00 0.00 93 1018.2
20260502110054 38 35 0.0 2.0 0.00 0.00 0.00 93 1017.8
20260502105551 38 246 0.0 2.0 0.00 0.00 0.00 93 1018.2
20260502105048 38 123 0.0 2.0 0.00 0.00 0.00 94 1017.5
20260502104545 38 59 0.0 2.0 0.00 0.00 0.00 94 1017.6
20260502104043 38 131 0.0 1.0 0.00 0.00 0.00 94 1017.6
20260502103540 38 290 0.0 2.0 0.00 0.00 0.00 94 1017.7
20260502103038 38 25 0.0 2.0 0.00 0.00 0.00 94 1017.4
20260502102534 38 346 2.0 2.0 0.00 0.00 0.00 94 1017.6
20260502102032 38 326 0.0 2.0 0.00 0.00 0.00 94 1017.5
20260502101529 38 89 1.0 2.0 0.00 0.00 0.00 94 1017.8
20260502101028 38 176 1.0 2.0 0.00 0.00 0.00 94 1017.6
20260502100526 38 166 1.0 2.0 0.00 0.00 0.00 94 1017.4
20260502091500 38 108 2.0 3.0 0.00 0.00 0.00 92 1017.6
20260502090958 38 343 3.0 3.0 0.00 0.00 0.00 92 1017.8
20260502090454 38 269 0.0 1.0 0.00 0.00 0.00 92 1017.7
20260502071349 42 28 2.0 2.0 0.00 0.00 0.00 80 1017.4
20260502070847 42 341 0.0 3.0 0.00 0.00 0.00 79 1017.4
20260502070344 42 11 2.0 2.0 0.00 0.00 0.00 80 1017.4
20260502065843 42 317 0.0 2.0 0.00 0.00 0.00 80 1017.3
20260502065341 42 283 2.0 3.0 0.00 0.00 0.00 81 1017.5
20260502064838 42 30 1.0 2.0 0.00 0.00 0.00 82 1017.4
20260502064336 41 328 0.0 2.0 0.00 0.00 0.00 81 1017.5
20260502063833 41 91 2.0 2.0 0.00 0.00 0.00 81 1017.5
20260502063331 41 56 2.0 2.0 0.00 0.00 0.00 82 1017.5
20260502062828 41 56 2.0 2.0 0.00 0.00 0.00 81 1017.4
20260502062326 41 53 0.0 1.0 0.00 0.00 0.00 81 1017.5
20260502061824 41 304 0.0 0.0 0.00 0.00 0.00 81 1017.5
20260502061322 41 23 3.0 4.0 0.00 0.00 0.00 81 1017.5
20260502060817 41 30 1.0 2.0 0.00 0.00 0.00 80 1017.7
20260502060312 41 293 0.0 0.0 0.00 0.00 0.00 79 1017.5
20260502055811 42 253 0.0 1.0 0.00 0.00 0.00 77 1017.6
20260502055308 42 77 3.0 3.0 0.00 0.00 0.00 77 1017.5
20260502054808 42 358 0.0 4.0 0.00 0.00 0.00 76 1017.6
20260502054305 43 314 0.0 5.0 0.00 0.00 0.00 75 1017.8
20260502053802 43 96 1.0 3.0 0.00 0.00 0.00 75 1017.9
20260502053259 43 20 6.0 9.0 0.00 0.00 0.00 75 1017.8
20260502052757 43 43 7.0 9.0 0.00 0.00 0.00 75 1017.8
20260502052255 43 274 0.0 5.0 0.00 0.00 0.00 75 1017.9
20260502051752 43 47 3.0 4.0 0.00 0.00 0.00 75 1017.7
20260502051251 43 3 2.0 4.0 0.00 0.00 0.00 74 1017.9
20260502050746 43 16 3.0 5.0 0.00 0.00 0.00 75 1017.8
20260502050242 43 3 1.0 2.0 0.00 0.00 0.00 75 1017.8
20260502045740 44 331 3.0 7.0 0.00 0.00 0.00 75 1017.8
20260502045237 44 299 0.0 5.0 0.00 0.00 0.00 73 1017.8
20260502044734 44 295 3.0 5.0 0.00 0.00 0.00 73 1017.8
20260502044230 44 35 6.0 6.0 0.00 0.00 0.00 73 1017.6
20260502043727 44 22 7.0 10.0 0.00 0.00 0.00 73 1017.6
20260502043225 44 14 3.0 8.0 0.00 0.00 0.00 73 1017.7
20260502042724 44 1 3.0 6.0 0.00 0.00 0.00 75 1017.8
20260502042222 44 13 5.0 11.0 0.00 0.00 0.00 75 1017.4